Time,TemperatureF,DewpointF,PressureIn,WindDirection,WindDirectionDegrees,WindSpeedMPH,WindSpeedGustMPH,Humidity,HourlyPrecipIn,Conditions,Clouds,dailyrainin,SolarRadiationWatts/m^2,SoftwareType,DateUTC
2013-01-02 00:11:00,43.0,2.0,30.18,NNW,348,11.0,22.0,18,0.00,,,0.00,0.000000,,2013-01-02 08:11:00,
2013-01-02 00:32:00,44.0,-7.0,30.17,SE,133,7.0,14.0,11,0.00,,,-99.99,0.000000,,2013-01-02 08:32:00,
2013-01-02 01:43:00,43.0,-14.0,30.17,SE,138,16.0,18.0,8,-99.99,,,0.00,0.000000,,2013-01-02 09:43:00,
2013-01-02 01:52:00,43.0,-14.0,30.17,SE,138,16.0,18.0,8,-99.99,,,0.00,0.000000,,2013-01-02 09:52:00,
2013-01-02 02:32:00,45.0,-5.0,30.17,South,172,9.0,18.0,12,-99.99,,,0.00,0.000000,,2013-01-02 10:32:00,
2013-01-02 03:33:00,41.0,2.0,30.16,SSE,163,8.0,18.0,19,-99.99,,,0.00,0.000000,,2013-01-02 11:33:00,
2013-01-02 04:33:00,42.0,2.0,30.15,East,97,10.0,13.0,18,0.00,,,0.00,0.000000,,2013-01-02 12:33:00,
2013-01-02 05:33:00,42.0,9.0,30.14,SE,145,10.0,13.0,25,0.00,,,0.00,0.000000,,2013-01-02 13:33:00,
2013-01-02 06:43:00,43.0,7.0,30.14,SSW,196,8.0,13.0,22,0.00,,,0.00,0.000000,,2013-01-02 14:43:00,
2013-01-02 06:53:00,43.0,7.0,30.14,SSW,196,8.0,13.0,22,0.00,,,0.00,0.000000,,2013-01-02 14:53:00,
2013-01-02 07:33:00,43.0,5.0,30.15,SW,229,8.0,10.0,20,0.00,,,0.00,0.000000,,2013-01-02 15:33:00,
2013-01-02 08:33:00,46.0,2.0,30.15,WSW,252,5.0,11.0,16,0.00,,,0.00,0.000000,,2013-01-02 16:33:00,
2013-01-02 09:43:00,47.0,7.0,30.17,WSW,242,8.0,13.0,19,-99.99,,,0.00,26.000000,,2013-01-02 17:43:00,
2013-01-02 09:53:00,47.0,7.0,30.17,WSW,242,8.0,13.0,19,-99.99,,,0.00,26.000000,,2013-01-02 17:53:00,
2013-01-02 10:43:00,48.0,4.0,30.19,NNW,340,4.0,14.0,16,-99.99,,,0.00,197.000000,,2013-01-02 18:43:00,
2013-01-02 10:53:00,48.0,4.0,30.19,NNW,340,4.0,14.0,16,-99.99,,,0.00,197.000000,,2013-01-02 18:53:00,
2013-01-02 11:33:00,49.0,5.0,30.19,WSW,251,4.0,10.0,16,0.00,,,0.00,367.000000,,2013-01-02 19:33:00,
2013-01-02 12:42:00,50.0,7.0,30.17,WSW,258,5.0,11.0,17,-99.99,,,0.00,498.000000,,2013-01-02 20:42:00,
2013-01-02 12:53:00,50.0,7.0,30.17,WSW,258,5.0,11.0,17,-99.99,,,0.00,498.000000,,2013-01-02 20:53:00,
2013-01-02 13:43:00,49.0,3.0,30.15,WSW,258,4.0,11.0,15,-99.99,,,0.00,572.000000,,2013-01-02 21:43:00,
2013-01-02 14:43:00,49.0,5.0,30.14,WNW,283,6.0,9.0,16,0.00,,,0.00,584.000000,,2013-01-02 22:43:00,
2013-01-02 14:53:00,49.0,5.0,30.14,WNW,283,6.0,9.0,16,0.00,,,0.00,584.000000,,2013-01-02 22:53:00,
2013-01-02 15:43:00,51.0,4.0,30.14,WNW,289,6.0,16.0,14,0.00,,,0.00,531.000000,,2013-01-02 23:43:00,
2013-01-02 15:53:00,51.0,4.0,30.14,WNW,289,6.0,16.0,14,0.00,,,0.00,531.000000,,2013-01-02 23:53:00,
2013-01-02 16:38:00,48.0,3.0,30.13,WNW,290,5.0,11.0,15,-99.99,,,0.00,421.000000,,2013-01-03 00:38:00,
2013-01-02 17:43:00,46.0,1.0,30.12,NNW,334,6.0,13.0,15,0.00,,,0.00,265.000000,,2013-01-03 01:43:00,
2013-01-02 17:52:00,46.0,1.0,30.12,NNW,334,6.0,13.0,15,0.00,,,0.00,265.000000,,2013-01-03 01:52:00,
2013-01-02 18:33:00,45.0,-1.0,30.13,NNW,343,6.0,13.0,14,0.00,,,0.00,79.000000,,2013-01-03 02:33:00,
2013-01-02 18:43:00,45.0,-1.0,30.13,NNW,343,6.0,13.0,14,0.00,,,0.00,79.000000,,2013-01-03 02:43:00,
2013-01-02 18:52:00,45.0,-1.0,30.13,NNW,343,6.0,13.0,14,0.00,,,0.00,79.000000,,2013-01-03 02:52:00,
2013-01-02 19:47:00,47.0,0.0,30.13,North,7,10.0,14.0,14,0.00,,,0.00,0.000000,,2013-01-03 03:47:00,
2013-01-02 19:52:00,47.0,0.0,30.13,North,7,10.0,14.0,14,0.00,,,0.00,0.000000,,2013-01-03 03:52:00,
2013-01-02 20:02:00,47.0,0.0,30.13,North,7,10.0,14.0,14,0.00,,,0.00,0.000000,,2013-01-03 04:02:00,
2013-01-02 20:12:00,47.0,0.0,30.13,North,7,10.0,14.0,14,0.00,,,0.00,0.000000,,2013-01-03 04:12:00,
2013-01-02 20:32:00,47.0,0.0,30.13,North,7,8.0,12.0,14,0.00,,,0.00,0.000000,,2013-01-03 04:32:00,
2013-01-02 21:33:00,45.0,0.0,30.14,North,357,5.0,10.0,15,0.00,,,0.00,0.000000,,2013-01-03 05:33:00,
2013-01-02 21:42:00,45.0,0.0,30.14,North,357,5.0,10.0,15,0.00,,,0.00,0.000000,,2013-01-03 05:42:00,
2013-01-02 21:52:00,45.0,0.0,30.14,North,357,5.0,10.0,15,0.00,,,0.00,0.000000,,2013-01-03 05:52:00,
2013-01-02 22:02:00,45.0,0.0,30.14,North,357,5.0,10.0,15,0.00,,,0.00,0.000000,,2013-01-03 06:02:00,
2013-01-02 22:12:00,45.0,0.0,30.14,North,357,5.0,10.0,15,0.00,,,0.00,0.000000,,2013-01-03 06:12:00,
2013-01-02 22:42:00,46.0,1.0,30.15,NNW,335,3.0,6.0,15,0.00,,,0.00,0.000000,,2013-01-03 06:42:00,
2013-01-02 22:52:00,46.0,1.0,30.15,NNW,335,3.0,6.0,15,0.00,,,0.00,0.000000,,2013-01-03 06:52:00,
2013-01-02 23:33:00,45.0,-1.0,30.14,NW,310,3.0,4.0,14,0.00,,,-99.99,0.000000,,2013-01-03 07:33:00,